Regional Weather Roundup
Issued by NWS

Home | Current Version | Previous Version | Text Only | Print | Product List | Glossary On
Versions: 1 2 3 4 5 6 7 8 9 10 11 12 13 14 15 16 17 18 19 20 21 22 23 24 25 26 27 28 29 30 31 32 33 34 35 36 37 38 39 40 41 42 43 44 45 46 47 48 49 50
000
ASUS43 KTOP 020108
RWRKS

WEATHER ROUNDUP FOR KANSAS
NATIONAL WEATHER SERVICE GOODLAND KS
800 PM CDT FRI AUG 01 2014

NOTE:  "FAIR" INDICATES FEW OR NO CLOUDS BELOW 12,000 FEET WITH NO
SIGNIFICANT WEATHER AND/OR OBSTRUCTIONS TO VISIBILITY.

KSZ001>006-013>018-027>032-041>047-020200-
NORTHWEST KANSAS

CITY           SKY/WX    TMP DP  RH WIND       PRES   REMARKS
GOODLAND       CLOUDY    80  51  36 SE9       30.17R
HAYS           CLEAR     84  52  32 NE12      30.08R
HILL CITY      CLEAR     86  49  27 NE8       30.09R
RUSSELL        CLEAR     84  53  34 NE10      30.06R
$$

KSZ061>065-074>080-084>089-020200-
SOUTHWEST KANSAS

CITY           SKY/WX    TMP DP  RH WIND       PRES   REMARKS
DODGE CITY     CLOUDY    83  54  36 E7        30.10R
ELKHART          N/A     80  56  43 SE5         N/A
GARDEN CITY    MOCLDY    81  61  50 CALM      30.11S
GREAT BEND       N/A     84  55  37 NE9       30.05R
LIBERAL        PTCLDY    84  52  32 E9        30.13R
PRATT          CLEAR     84  52  32 NE5       30.07R
$$

KSZ066>073-081>083-090>101-020200-
SOUTHEAST KANSAS

CITY           SKY/WX    TMP DP  RH WIND       PRES   REMARKS
CHANUTE        CLEAR     78  64  61 S5        30.03S
COFFEYVILLE    CLEAR     79  64  60 S6        30.03S
HUTCHINSON     CLEAR     83  55  38 N5        30.03R
MEDICINE LODGE   N/A     84  62  47 NE6       30.02R
NEWTON         CLEAR     82  45  26 N7        30.06R
PARSONS        CLEAR     79  64  60 S5        30.04S
WICHITA INTL   PTCLDY    84  63  49 S13       30.01R
WICHITA JABRA  PTCLDY    83  65  54 S10       30.01S
WICHITA MCCONL CLEAR     82  64  54 S10       30.02R
WINFIELD       CLEAR     79  67  66 S10       30.03S
$$

KSZ007>012-019>026-033>040-048>060-102>105-020200-
NORTHEAST KANSAS

CITY           SKY/WX    TMP DP  RH WIND       PRES   REMARKS
CONCORDIA      CLEAR     81  62  52 N8        30.04S
EMPORIA        CLEAR     80  64  58 S14       30.02R
LAWRENCE       CLEAR     81  63  54 E7        30.03R
MANHATTAN      CLEAR     85  59  41 CALM      29.99R
MARYSVILLE     CLEAR     81  63  54 E10G16    30.03R
OLATHE IND     CLEAR     80  62  54 E6        30.05R
OLATHE EXE     CLEAR     79  62  56 E6        30.04S
SALINA         CLEAR     86  53  32 N8        30.02S
TOPEKA BILLARD CLEAR     83  62  49 E8        30.02R
TOPEKA FORBES  CLOUDY    81  62  52 E7        30.02R
$$


USA.gov is the U.S. government's official web portal to all federal, state and local government web resources and services.